TimeMDT,TemperatureF,Dew PointF,Humidity,Sea Level PressureIn,VisibilityMPH,Wind Direction,Wind SpeedMPH,Gust SpeedMPH,PrecipitationIn,Events,Conditions,WindDirDegrees,DateUTC
12:55 AM,71.1,52.0,51,29.56,10.0,SW,3.5,-,N/A,,Clear,230,2013-09-18 06:55:00
1:55 AM,64.9,52.0,63,29.56,10.0,Calm,Calm,-,N/A,,Clear,0,2013-09-18 07:55:00
2:55 AM,64.0,53.1,67,29.55,10.0,North,4.6,-,N/A,,Clear,10,2013-09-18 08:55:00
3:55 AM,66.9,53.1,61,29.54,10.0,Calm,Calm,-,N/A,,Clear,0,2013-09-18 09:55:00
4:55 AM,64.0,53.1,67,29.54,10.0,Calm,Calm,-,N/A,,Clear,0,2013-09-18 10:55:00
5:55 AM,64.0,53.1,67,29.55,10.0,NW,12.7,17.3,N/A,,Partly Cloudy,320,2013-09-18 11:55:00
6:55 AM,66.9,53.1,61,29.57,10.0,WSW,4.6,-,N/A,,Clear,240,2013-09-18 12:55:00
7:55 AM,68.0,54.0,61,29.58,10.0,WSW,6.9,-,N/A,,Clear,250,2013-09-18 13:55:00
8:55 AM,71.1,55.0,57,29.58,10.0,SW,4.6,-,N/A,,Clear,230,2013-09-18 14:55:00
9:55 AM,73.9,55.0,52,29.59,10.0,Variable,5.8,-,N/A,,Clear,0,2013-09-18 15:55:00
10:55 AM,79.0,54.0,42,29.57,10.0,West,8.1,-,N/A,,Clear,270,2013-09-18 16:55:00
11:55 AM,82.9,53.1,36,29.55,10.0,West,5.8,-,N/A,,Clear,270,2013-09-18 17:55:00
12:55 PM,87.1,51.1,29,29.53,10.0,WSW,8.1,-,N/A,,Clear,240,2013-09-18 18:55:00
1:55 PM,93.0,48.9,22,29.51,10.0,WSW,15.0,18.4,N/A,,Clear,250,2013-09-18 19:55:00
2:55 PM,93.0,48.0,21,29.50,10.0,SW,17.3,21.9,N/A,,Clear,230,2013-09-18 20:55:00
3:55 PM,91.0,48.0,23,29.49,10.0,WSW,12.7,-,N/A,,Clear,250,2013-09-18 21:55:00
4:55 PM,93.0,46.9,20,29.49,10.0,SSW,11.5,-,N/A,,Clear,210,2013-09-18 22:55:00
5:55 PM,91.9,45.0,20,29.48,10.0,SW,13.8,20.7,N/A,,Clear,220,2013-09-18 23:55:00
6:29 PM,78.8,51.8,39,29.59,10.0,NW,19.6,35.7,N/A,,Clear,320,2013-09-19 00:29:00
6:41 PM,75.2,51.8,44,29.60,10.0,NNW,23.0,33.4,N/A,,Clear,330,2013-09-19 00:41:00
6:55 PM,73.0,51.1,46,29.56,10.0,NNW,21.9,29.9,N/A,,Clear,340,2013-09-19 00:55:00
7:55 PM,68.0,55.0,63,29.60,10.0,North,18.4,25.3,N/A,,Clear,10,2013-09-19 01:55:00
8:55 PM,64.9,55.9,73,29.64,10.0,North,11.5,-,N/A,,Clear,350,2013-09-19 02:55:00
9:55 PM,63.0,54.0,72,29.66,10.0,NNW,8.1,-,N/A,,Clear,330,2013-09-19 03:55:00
10:55 PM,62.1,55.0,78,29.71,10.0,WNW,8.1,-,N/A,,Clear,300,2013-09-19 04:55:00
11:55 PM,64.0,51.1,63,29.72,10.0,NNW,18.4,28.8,N/A,,Clear,330,2013-09-19 05:55:00